Weather reports worldwide

Advertisment
Menorca/Mahon, Spain (8314): temperature & dewpoint: 19.02.2020 11:00:00 - 25.02.2020 11:00:00 (CET)Menorca/Mahon, Spain (8314): wind speed: 19.02.2020 11:00:00 - 25.02.2020 11:00:00 (CET)Menorca/Mahon, Spain (8314): wind direction: 19.02.2020 11:00:00 - 25.02.2020 11:00:00 (CET)Menorca/Mahon, Spain (8314): reduced air pressure: 19.02.2020 11:00:00 - 25.02.2020 11:00:00 (CET)Menorca/Mahon, Spain (8314): visibility: 19.02.2020 11:00:00 - 25.02.2020 11:00:00 (CET)
Date & Time tt [°C] td [°C] ff [km/h] ff [kn] dd ppp [hPa] vv [km]
25.02.2020 11:00:00 - - - - - - -
25.02.2020 10:00:00 14,4 11,5 22 12 WSW 1017,2 14
25.02.2020 09:00:00 13,2 11,8 16 9 WSW 1017,4 -
25.02.2020 08:00:00 12,3 11,5 18 10 SW 1017,2 10
25.02.2020 07:00:00 11,8 11,3 15 8 SW 1017,3 9
25.02.2020 06:00:00 11,7 11,2 15 8 SW 1017,6 -
25.02.2020 05:00:00 10,6 9,8 13 7 WSW 1018,1 -
25.02.2020 04:00:00 10,3 9,5 13 7 SW 1018,6 -
25.02.2020 03:00:00 10,2 9,3 11 6 WSW 1019,4 -
25.02.2020 02:00:00 10,1 9,2 13 7 SW 1020,6 -
25.02.2020 01:00:00 11,1 10,2 15 8 WSW 1021,2 -
25.02.2020 00:00:00 11,0 9,7 9 5 WSW 1021,6 -
24.02.2020 23:00:00 11,3 9,2 9 5 WSW 1021,8 -
24.02.2020 22:00:00 12,2 9,6 15 8 WSW 1022,2 25
24.02.2020 21:00:00 12,5 10,4 16 9 SW 1022,3 -
24.02.2020 20:00:00 12,5 11,1 13 7 WSW 1022,9 -
24.02.2020 19:00:00 12,8 11,2 9 5 SW 1023,0 25
24.02.2020 18:00:00 15,4 12,2 13 7 SW 1022,9 -
24.02.2020 17:00:00 16,6 12,4 15 8 SW 1023,2 -
24.02.2020 16:00:00 17,7 11,0 13 7 WSW 1023,9 25
24.02.2020 15:00:00 18,5 9,9 13 7 SW 1024,6 -
24.02.2020 14:00:00 19,2 9,6 13 7 WSW 1025,2 25
24.02.2020 13:00:00 19,6 5,3 15 8 WSW 1026,3 25
24.02.2020 12:00:00 18,4 9,2 11 6 W 1027,2 -
24.02.2020 11:00:00 17,0 11,4 11 6 W 1027,7 -
24.02.2020 10:00:00 14,9 12,6 15 8 W 1027,9 25
24.02.2020 09:00:00 13,5 13,0 11 6 W 1027,9 -
24.02.2020 08:00:00 10,3 10,1 9 5 W 1027,9 22
24.02.2020 07:00:00 9,4 9,3 11 6 W 1028,1 9
24.02.2020 06:00:00 9,3 9,1 11 6 W 1028,4 -
24.02.2020 05:00:00 9,1 8,8 13 7 W 1028,5 -
24.02.2020 04:00:00 8,0 7,7 9 5 W 1028,8 -
24.02.2020 03:00:00 6,4 6,1 13 7 W 1029,9 -
24.02.2020 02:00:00 5,6 5,2 8 4 W 1030,6 -
24.02.2020 01:00:00 7,2 6,6 9 5 W 1030,8 -
24.02.2020 00:00:00 7,9 7,5 9 5 W 1031,2 -
23.02.2020 23:00:00 7,6 7,0 8 4 W 1031,6 -
23.02.2020 22:00:00 9,3 8,7 9 5 W 1031,4 11
23.02.2020 21:00:00 8,6 7,8 8 4 WSW 1031,4 -
23.02.2020 20:00:00 9,6 8,4 8 4 WSW 1031,4 -
23.02.2020 19:00:00 11,9 10,3 8 4 W 1031,3 30
23.02.2020 18:00:00 14,5 11,1 11 6 WSW 1031,2 -
23.02.2020 17:00:00 15,9 10,9 13 7 WSW 1031,5 -
23.02.2020 16:00:00 16,1 11,4 15 8 WSW 1031,6 30
23.02.2020 15:00:00 16,2 10,9 16 9 WSW 1031,9 -
23.02.2020 14:00:00 16,1 10,9 21 11 W 1032,6 25
23.02.2020 13:00:00 16,2 11,4 22 12 W 1033,5 25
23.02.2020 12:00:00 16,6 12,5 15 8 WSW 1033,9 -
23.02.2020 11:00:00 15,8 12,1 15 8 W 1034,1 -
23.02.2020 10:00:00 14,3 12,0 11 6 W 1033,8 15
23.02.2020 09:00:00 12,1 11,5 4 2 NW 1033,9 -
23.02.2020 08:00:00 7,6 7,3 8 4 WNW 1033,7 11
23.02.2020 07:00:00 8,2 7,9 9 5 NW 1033,3 4,0
23.02.2020 06:00:00 7,0 6,6 5 3 NW 1033,2 -
23.02.2020 05:00:00 8,3 8,0 9 5 NW 1033,2 -
23.02.2020 04:00:00 8,3 8,0 8 4 NW 1033,2 -
23.02.2020 03:00:00 8,7 8,4 9 5 WNW 1033,1 -
23.02.2020 02:00:00 7,6 7,2 9 5 WNW 1033,7 -
23.02.2020 01:00:00 6,5 5,8 9 5 WNW 1034,3 -
23.02.2020 00:00:00 7,0 6,5 9 5 WNW 1034,3 -
22.02.2020 23:00:00 7,8 7,2 9 5 WNW 1034,3 -
22.02.2020 22:00:00 7,2 6,6 8 4 NW 1034,6 12
22.02.2020 21:00:00 7,6 6,7 8 4 NNW 1034,4 -
22.02.2020 20:00:00 8,8 7,6 2 1 NW 1034,1 -
22.02.2020 19:00:00 10,7 9,4 15 8 NNE 1033,3 19
22.02.2020 18:00:00 13,4 10,4 16 9 N 1032,7 -
22.02.2020 17:00:00 15,7 10,1 16 9 N 1032,0 -
22.02.2020 16:00:00 17,2 10,7 16 9 N 1031,9 25
22.02.2020 15:00:00 18,2 9,6 13 7 NNW 1031,8 -
22.02.2020 14:00:00 19,0 9,7 15 8 NNW 1032,0 25
22.02.2020 13:00:00 18,2 12,1 15 8 W 1032,5 25
22.02.2020 12:00:00 17,5 11,6 15 8 W 1032,7 -
22.02.2020 11:00:00 16,1 11,3 15 8 WNW 1032,2 -
22.02.2020 10:00:00 14,5 11,6 15 8 WNW 1032,1 22
22.02.2020 09:00:00 12,4 11,4 8 4 WNW 1032,0 -
22.02.2020 08:00:00 9,8 9,3 11 6 WNW 1031,4 19
22.02.2020 07:00:00 7,5 7,1 8 4 NW 1031,0 17
22.02.2020 06:00:00 8,8 8,2 8 4 NW 1030,5 -
22.02.2020 05:00:00 8,6 8,0 8 4 NW 1030,0 -
22.02.2020 04:00:00 9,4 8,8 11 6 WNW 1029,9 -
22.02.2020 03:00:00 9,3 8,5 9 5 WNW 1030,2 -
22.02.2020 02:00:00 9,8 9,0 11 6 WNW 1030,3 -
22.02.2020 01:00:00 9,3 8,4 13 7 WNW 1030,1 -
22.02.2020 00:00:00 8,9 8,0 13 7 WNW 1030,0 -
21.02.2020 23:00:00 9,5 8,6 13 7 WNW 1030,0 -
21.02.2020 22:00:00 8,9 7,7 15 8 W 1029,8 20
21.02.2020 21:00:00 8,4 6,7 11 6 W 1029,6 -
21.02.2020 20:00:00 9,0 6,8 9 5 WNW 1029,4 -
21.02.2020 19:00:00 9,4 6,5 5 3 NNW 1029,4 20
21.02.2020 18:00:00 13,4 8,0 9 5 N 1028,8 -
21.02.2020 17:00:00 14,9 8,0 18 10 N 1028,7 -
21.02.2020 16:00:00 15,4 8,2 21 11 N 1028,8 25
21.02.2020 15:00:00 15,8 8,4 26 14 N 1029,0 -
21.02.2020 14:00:00 16,2 9,2 29 16 NNE 1029,2 25
21.02.2020 13:00:00 16,4 9,9 29 16 N 1029,6 25
21.02.2020 12:00:00 16,0 9,4 28 15 N 1030,0 -
21.02.2020 11:00:00 15,6 9,5 24 13 N 1029,7 -
21.02.2020 10:00:00 14,4 9,9 18 10 N 1029,6 25
21.02.2020 09:00:00 11,8 10,5 5 3 WNW 1029,0 -
21.02.2020 08:00:00 6,1 5,4 9 5 WNW 1028,8 22
21.02.2020 07:00:00 7,5 6,9 8 4 NW 1028,3 20
21.02.2020 06:00:00 5,8 5,1 9 5 NW 1028,1 -
21.02.2020 05:00:00 6,4 5,3 8 4 NW 1027,8 -
21.02.2020 04:00:00 8,3 7,5 9 5 NW 1028,0 -
21.02.2020 03:00:00 6,5 6,1 8 4 NW 1028,6 -
21.02.2020 02:00:00 4,5 3,8 0 0 N 1028,4 -
21.02.2020 01:00:00 4,6 3,6 4 2 NNW 1028,2 -
21.02.2020 00:00:00 4,8 3,6 0 0 N 1027,8 -
20.02.2020 23:00:00 6,1 4,9 8 4 NNE 1027,5 -
20.02.2020 22:00:00 6,1 4,6 5 3 ENE 1027,4 25
20.02.2020 21:00:00 6,2 4,7 0 0 N 1027,1 -
20.02.2020 20:00:00 7,3 4,9 4 2 S 1027,1 -
20.02.2020 19:00:00 10,8 7,3 5 3 E 1026,5 25
20.02.2020 18:00:00 13,2 8,1 8 4 ENE 1026,0 -
20.02.2020 17:00:00 15,6 8,6 4 2 SW 1025,6 -
20.02.2020 16:00:00 14,8 8,4 11 6 WSW 1025,7 25
20.02.2020 15:00:00 16,1 8,3 13 7 WSW 1025,3 -
20.02.2020 14:00:00 16,4 8,5 13 7 W 1025,5 25
20.02.2020 13:00:00 15,9 8,7 15 8 W 1026,2 25
20.02.2020 12:00:00 15,7 8,3 11 6 WSW 1026,7 -
20.02.2020 11:00:00 15,6 7,6 2 1 W 1026,7 -
20.02.2020 10:00:00 13,7 8,1 11 6 WNW 1026,9 25
20.02.2020 09:00:00 11,3 8,9 8 4 WNW 1026,8 -
20.02.2020 08:00:00 5,6 4,4 9 5 WNW 1026,7 20
20.02.2020 07:00:00 6,1 4,7 9 5 NW 1026,6 20
20.02.2020 06:00:00 6,5 5,4 13 7 NNW 1026,8 -
20.02.2020 05:00:00 5,8 4,8 13 7 NNW 1026,8 -
20.02.2020 04:00:00 6,5 5,1 11 6 NNW 1027,1 -
20.02.2020 03:00:00 7,4 5,7 11 6 NW 1027,8 -
20.02.2020 02:00:00 7,3 5,4 8 4 NW 1028,3 -
20.02.2020 01:00:00 7,6 5,6 11 6 NNW 1028,7 -
20.02.2020 00:00:00 8,0 5,6 9 5 NW 1028,8 -
19.02.2020 23:00:00 8,7 5,8 11 6 NNW 1029,4 -
19.02.2020 22:00:00 9,8 6,7 8 4 NW 1029,6 20
19.02.2020 21:00:00 8,8 6,8 8 4 NW 1029,7 -
19.02.2020 20:00:00 9,7 6,9 8 4 W 1029,6 -
19.02.2020 19:00:00 10,3 6,5 11 6 WSW 1029,5 25
19.02.2020 18:00:00 12,9 7,3 11 6 W 1029,2 -
19.02.2020 17:00:00 14,7 8,1 13 7 SW 1029,5 -
19.02.2020 16:00:00 15,8 7,7 9 5 WSW 1029,9 30
19.02.2020 15:00:00 14,1 7,7 8 4 NNE 1030,4 -
19.02.2020 14:00:00 14,7 7,5 18 10 N 1031,3 30
19.02.2020 13:00:00 14,3 7,8 18 10 N 1031,9 25
19.02.2020 12:00:00 14,7 7,7 18 10 NNE 1032,3 -
19.02.2020 11:00:00 14,2 8,2 24 13 NNE 1032,5 -

tt = temperature
td = dewpoint
ff = wind speed
dd = wind direction
ppp = reduced air pressure
vv = visibility

Next stations